STARLINK-5893, 55952

Orbit data source: Space-Track

STARLINK-5893, 55952 is a payload satellite owned by SpaceX/Seattle (US) in LEO that was launched on Fri, 17 Mar 2023 UTC via an FALCON 9 launch vehicle from the Air Force Western Test Range (AFWTR). Payload-class satellites include a variety of spacecraft equipped with specific instruments for various scientific and technological missions. These include communications satellites like Starlink; space stations such as the ISS; scientific satellites like the Hubble; Earth observation satellites from companies like Planet Labs, Umbra, and HawkEye 360; GPS; miniature CubeSats for education and research; and military/defense satellites.

Loading next visibility...
Identifier
55952, 2023-037AQ
Orbit
LEO
Country
Flag of USUS
Related business
Manufacturer
SpaceX/Seattle
Mission
Operational Commercial Communications
Bus & Motor
STARLINK, Unknown motor
Mass
305 kg wet, ~290 kg dry
Launch date (UTC)
2023-03-17 (3 years ago)
Launch vehicle
FALCON 9
Launch site
Air Force Western Test Range (AFWTR)
Object type
Payload
Rocket body
Debris
Shape & HBR
Box + 1 Pan, 10.1 m
Radar Cross Section
11.087 m², Large (>1 m²)

Expand to show TLE details & history
Last TLE update: 19 hours ago

TLE from 19 hours ago
0 STARLINK-5893
1 55952U 23037AQ  25349.72765812 -.00000556  00000-0 -38838-4 0  9994
2 55952  70.0001 116.2698 0003064 273.3513  86.7295 14.98332023151892
Epoch: 2025-12-15T17:27Z
TLE epoch observation values (Epoch: 2025-12-15T17:27:49.661Z)
Latitude
-0.00008°
Longitude
129.69078°
Altitude
574.353 km
Speed
7.574 km/s
True Right ascension
07h 45m 04s
True Declination
0° 00' 00"
Sunlit
Object was in full shadow at epoch
Visualization orbit readout
Latitude
Unknown
Longitude
Unknown
Altitude
Unknown
Speed
Unknown
Apparent Right ascension
Unknown
Apparent Declination
Unknown
Sunlit
N/A
Visualization observer readout
Local Sidereal Time
11:11:21
Azimuth
Unknown
Elevation
Unknown
Doppler factor
Unknown
Orbital elements
Apogee altitude
572.127 km
Perigee altitude
567.869 km
Semi-major axis
6,948.135 km
Eccentricity
0.00031
Inclination
70.0001°
RAAN
116.2698°
Arg. of periapsis
273.3513°
True anomaly
86.76455°
Mean anomaly
86.7295°
Eccentric anomaly
86.74703°
Mean motion
3.74749 °/min
Orbital period
96.06 mins
BSTAR
-0.000038838
Loading maneuver chart data...
Computing Atmospheric mass density...
Loading historical data...
Loading historical data...
Loading historical data...
Loading historical data...
Loading historical data...
Loading historical data...
Loading historical data...

Documentation

Showing up to 5 results
|